Tracking 30995 objects as of 5-Jul-2025
HD Live streaming from Space Station
objects crossing your sky now

NOAA 16 DEB

Track NOAA 16 DEB now!
10-day predictions


NORAD ID: 41302
Int'l Code: 2000-055HE
Perigee: 807.2 km
Apogee: 841.1 km
Inclination: 98.7 °
Period: 101.2 minutes
Semi major axis: 7195 km
RCS: Unknown
Launch date: September 21, 2000
Source: United States (US)
Launch site: AIR FORCE WESTERN TEST RANGE (AFWTR)

Note: This is SATELLITE DEBRIS
Your satellite tracking list
ATLAS 2A CENTAUR R/B
Track 1 satellite(s)




NASA's NSSDC Master Catalog

Two Line Element Set (TLE):
1 41302U 00055HE  25185.61580666  .00003091  00000-0  14015-2 0  9995
2 41302  98.7322 245.3035 0023572 132.6977 227.6190 14.22476032489547
Source of the keplerian elements: AFSPC